| time (UTC) | temp F | wind direction | speed knots | gust knots | rain 1hr in | rain 24hr in | rain mn in | humidity % | barometer mb |
| 20260504185552 | 74 | 68 | 4.3 | 7.8 | 0.00 | 0.00 | 0.00 | 51 | 1008.3 |
| 20260504184614 | 74 | 45 | 4.3 | 6.1 | 0.00 | 0.00 | 0.00 | 51 | 1008.3 |
| 20260504183554 | 75 | 68 | 4.3 | 7.8 | 0.00 | 0.00 | 0.00 | 51 | 1008.2 |
| 20260504181553 | 76 | 68 | 3.5 | 5.2 | 0.00 | 0.00 | 0.00 | 50 | 1008.2 |
| 20260504180613 | 76 | 135 | 4.3 | 9.6 | 0.00 | 0.00 | 0.00 | 49 | 1008.1 |
| 20260504175554 | 76 | 90 | 6.1 | 7.8 | 0.00 | 0.00 | 0.00 | 49 | 1008.1 |
| 20260504174612 | 77 | 68 | 3.5 | 7.8 | 0.00 | 0.00 | 0.00 | 47 | 1008.1 |
| 20260504173553 | 76 | 113 | 5.2 | 9.6 | 0.00 | 0.00 | 0.00 | 48 | 1008.1 |
| 20260504171554 | 77 | 45 | 5.2 | 9.6 | 0.00 | 0.00 | 0.00 | 45 | 1008.2 |
| 20260504170613 | 75 | 338 | 2.6 | 4.3 | 0.00 | 0.00 | 0.00 | 56 | 1008.2 |
| 20260504150613 | 79 | 113 | 7.0 | 12.2 | 0.00 | 0.00 | 0.00 | 38 | 1008.1 |
| 20260504140614 | 77 | 315 | 4.3 | 9.6 | 0.00 | 0.00 | 0.00 | 49 | 1008.7 |
| 20260504130617 | 76 | 68 | 4.3 | 7.8 | 0.00 | 0.00 | 0.00 | 55 | 1009.1 |
| 20260504081555 | 70 | 293 | 1.7 | 1.7 | 0.00 | 0.00 | 0.00 | 78 | 1011.9 |
| 20260504080613 | 71 | 180 | 1.7 | 3.5 | 0.00 | 0.00 | 0.00 | 78 | 1011.8 |
| 20260504050615 | 62 | 225 | 1.7 | 1.7 | 0.00 | 0.00 | 0.00 | 90 | 1011.1 |
| 20260504045553 | 63 | 113 | 0.0 | 0.0 | 0.00 | 0.00 | 0.00 | 90 | 1010.9 |
| 20260504044614 | 63 | 135 | 1.7 | 1.7 | 0.00 | 0.00 | 0.00 | 90 | 1010.9 |
| 20260504042614 | 64 | 113 | 0.0 | 0.0 | 0.00 | 0.00 | 0.00 | 89 | 1010.8 |
| 20260504041552 | 64 | 135 | 0.0 | 0.0 | 0.00 | 0.00 | 0.00 | 89 | 1010.9 |
| 20260504040613 | 64 | 135 | 0.0 | 0.0 | 0.00 | 0.00 | 0.00 | 89 | 1011.0 |
| 20260504035553 | 65 | 113 | 0.0 | 0.0 | 0.00 | 0.00 | 0.00 | 89 | 1011.1 |
| 20260504034613 | 65 | 135 | 0.0 | 0.0 | 0.00 | 0.00 | 0.00 | 88 | 1011.2 |
| 20260504033556 | 65 | 135 | 0.0 | 0.0 | 0.00 | 0.00 | 0.00 | 88 | 1011.1 |
| 20260504032613 | 65 | 113 | 0.0 | 0.0 | 0.00 | 0.00 | 0.00 | 88 | 1011.1 |
| 20260504031554 | 65 | 135 | 0.0 | 0.0 | 0.00 | 0.00 | 0.00 | 88 | 1011.2 |
| 20260504025553 | 66 | 90 | 1.7 | 1.7 | 0.00 | 0.00 | 0.00 | 89 | 1011.3 |
| 20260504024613 | 66 | 113 | 0.9 | 1.7 | 0.00 | 0.00 | 0.00 | 89 | 1011.3 |
| 20260504023552 | 66 | 113 | 0.0 | 0.0 | 0.00 | 0.00 | 0.00 | 88 | 1011.4 |
| 20260504022613 | 66 | 90 | 0.0 | 0.0 | 0.00 | 0.00 | 0.00 | 88 | 1011.4 |
| 20260504020613 | 66 | 315 | 0.0 | 0.0 | 0.00 | 0.00 | 0.00 | 88 | 1011.5 |
| 20260504015553 | 66 | 293 | 0.0 | 0.0 | 0.00 | 0.00 | 0.00 | 88 | 1011.6 |
| 20260504014613 | 67 | 315 | 0.0 | 0.0 | 0.00 | 0.00 | 0.00 | 88 | 1011.5 |
| 20260504012613 | 66 | 293 | 0.0 | 0.0 | 0.00 | 0.00 | 0.00 | 88 | 1011.5 |
| 20260504011553 | 66 | 293 | 0.0 | 0.0 | 0.00 | 0.00 | 0.00 | 88 | 1011.7 |
| 20260504005552 | 67 | 293 | 0.9 | 1.7 | 0.00 | 0.00 | 0.00 | 88 | 1011.8 |
| 20260504004614 | 67 | 315 | 1.7 | 1.7 | 0.00 | 0.00 | 0.00 | 88 | 1011.9 |
| 20260504003553 | 67 | 293 | 1.7 | 1.7 | 0.00 | 0.00 | 0.00 | 88 | 1012.0 |
| 20260504001552 | 67 | 315 | 0.0 | 0.0 | 0.00 | 0.00 | 0.00 | 88 | 1012.0 |
| 20260504000616 | 67 | 338 | 0.9 | 1.7 | 0.00 | 0.00 | 0.00 | 87 | 1012.0 |
| 20260503235555 | 67 | 270 | 0.0 | 0.0 | 0.00 | 0.00 | 0.00 | 87 | 1012.0 |
| 20260503234615 | 67 | 315 | 1.7 | 1.7 | 0.00 | 0.00 | 0.00 | 87 | 1012.2 |
| 20260503233553 | 67 | 270 | 1.7 | 1.7 | 0.00 | 0.00 | 0.00 | 87 | 1012.2 |
| 20260503232614 | 67 | 293 | 0.0 | 1.7 | 0.00 | 0.00 | 0.00 | 87 | 1012.2 |
| 20260503231553 | 66 | 315 | 0.9 | 1.7 | 0.00 | 0.00 | 0.00 | 87 | 1012.2 |
| 20260503230614 | 66 | 293 | 0.9 | 1.7 | 0.00 | 0.00 | 0.00 | 88 | 1012.2 |
| 20260503225552 | 67 | 203 | 0.0 | 0.0 | 0.00 | 0.00 | 0.00 | 88 | 1012.2 |
| 20260503224613 | 66 | 203 | 1.7 | 3.5 | 0.00 | 0.00 | 0.00 | 87 | 1012.1 |
| 20260503223553 | 66 | 293 | 1.7 | 3.5 | 0.00 | 0.00 | 0.00 | 88 | 1012.1 |
| 20260503222614 | 66 | 248 | 1.7 | 1.7 | 0.00 | 0.00 | 0.00 | 88 | 1012.0 |
| 20260503221553 | 65 | 248 | 1.7 | 4.3 | 0.00 | 0.00 | 0.00 | 88 | 1012.2 |
| 20260503220614 | 65 | 248 | 1.7 | 3.5 | 0.00 | 0.00 | 0.00 | 88 | 1012.1 |
| 20260503215552 | 66 | 225 | 1.7 | 1.7 | 0.00 | 0.00 | 0.00 | 88 | 1012.2 |
| 20260503214614 | 66 | 225 | 1.7 | 3.5 | 0.00 | 0.00 | 0.00 | 87 | 1012.2 |
| 20260503213552 | 66 | 315 | 0.0 | 0.0 | 0.00 | 0.00 | 0.00 | 87 | 1012.1 |
| 20260503212614 | 66 | 0 | 0.0 | 0.0 | 0.00 | 0.00 | 0.00 | 87 | 1012.2 |
| 20260503210613 | 67 | 113 | 1.7 | 1.7 | 0.00 | 0.00 | 0.00 | 87 | 1012.1 |
| 20260503205553 | 67 | 68 | 0.9 | 1.7 | 0.00 | 0.00 | 0.00 | 87 | 1012.0 |
| 20260503204613 | 67 | 135 | 0.0 | 1.7 | 0.00 | 0.00 | 0.00 | 86 | 1011.9 |
| 20260503203553 | 67 | 135 | 1.7 | 3.5 | 0.00 | 0.00 | 0.00 | 86 | 1011.7 |
| 20260503202613 | 67 | 45 | 0.9 | 1.7 | 0.00 | 0.00 | 0.00 | 86 | 1011.6 |
| 20260503201553 | 66 | 248 | 1.7 | 1.7 | 0.00 | 0.00 | 0.00 | 86 | 1011.5 |
| 20260503200615 | 66 | 225 | 1.7 | 3.5 | 0.00 | 0.00 | 0.00 | 87 | 1011.2 |
| 20260503195552 | 66 | 225 | 0.0 | 1.7 | 0.00 | 0.00 | 0.00 | 87 | 1011.0 |
| 20260503194613 | 66 | 293 | 2.6 | 5.2 | 0.00 | 0.00 | 0.00 | 87 | 1010.9 |
| 20260503193552 | 66 | 68 | 3.5 | 5.2 | 0.00 | 0.00 | 0.00 | 87 | 1010.7 |
| 20260503192613 | 66 | 270 | 2.6 | 5.2 | 0.00 | 0.00 | 0.00 | 87 | 1010.5 |
| 20260503191553 | 66 | 225 | 4.3 | 7.8 | 0.00 | 0.00 | 0.00 | 88 | 1010.5 |
| 20260503190614 | 66 | 225 | 4.3 | 7.0 | 0.00 | 0.00 | 0.00 | 88 | 1010.4 |